SGDC (42692 NORAD) Tracking and Keplerian Element Data

This shows tracking and keplerian element data for the satellite.

Feedback or suggestion? Click here.




ElementValue
Catalog42692
NameSGDC
Epoch Orbit1604
Epoch Day261.21531874
Epoch Year2021
RAAN140.9406
Inclination0.0175
Eccentricity0.0002353
Argument of Perigee30.1451
Mean Anonmoly188.9186
Mean Motion1.0027135
Decay Rate-2.74E-06
L11 42692U 17023B 21261.21531874 -.00000274 00000-0 00000-0 0 9993
L22 42692 0.0175 140.9406 0002353 30.1451 188.9186 1.00271350 16040

Live tracking and technical data element details for SGDC (NORAD 42692). SGDC can be tracked NOW for your location showing map with azimuth and elevation plus other details from your city location.

Track the satellite on the map from your city or location and see movement details for azimuth, elevation, latitude, longitude, range, height, and movement on the map or in text.







IsCatalogInMostPopularTable: catalog: 42692, numindb: 560
Update: records affected: 1



GetName: 42692 SGDC

Hit Count: updated at: Sun, 26 Sep 2021 01:19:28 GMT